Accueil
METAR-TAF:

METAR-TAF

Aéroports :

Meiringen, Suisse

latitude: 46-44-25N, longitude: 8-06-36E, altitude: 577 m

Observation

Le bulletin a été fait il y a 49 minutes, à 18:50 UTC
Vent 4 kt de est, variant entre est/nord-est et sud-est
Température 12°C
Humidité 88%
Pression 1017 hPa
Visibilité 10 km ou plus
Quelques nuages à une hauteur de 5700 ft
Nuages fragmentés à une hauteur de 6900 ft
Ciel couvert à une hauteur de 7900 ft

METAR: LSMM 121850Z AUTO 09004KT 070V140 9999NDV FEW057 BKN069 OVC079 12/10 Q1017 RMK

Heure: 21:39 (19:39 UTC)


TAF: absent

Observations et prévisions météorologiques de plus de 4000 aéroports (messages METAR et TAF).

Les stations disponibles sont représentées par des disques jaunes et rouges sur la carte.

Passer la souris dessus pour voir le nom de la station.

Cliquer dessus pour voir les observations et prévisions météorologiques.

Pour changer de carte: cliquez sur les boutons verts avec une croix noire pour zoomer, sur le bouton vert avec un tiret pour effectuer un zoom arrière, ou sur les flèches vertes pour les cartes adjacentes.


METAR-TAF: